View Data : Daily Precipitation Reports By State
 
Iowa Daily Precipitation Reports
Display Date:
Showing 72 Records.    
DateTimeStation NumberStation NameTotal Precip in.New Snow in.Total Snow in.StateCountyView
12/18/2014  5:00 AM  IA-FY-2  Oelwein 0.8 WNW  0.00 0.0 NA IAFayette  View
12/18/2014  5:30 AM  IA-MS-2  Marshalltown 1.4 ENE  0.00 0.0 NA IAMarshall  View
12/18/2014  5:30 AM  IA-ST-4  Davenport 0.9 SSW  0.00 0.0 0.0 IAScott  View
12/18/2014  5:30 AM  IA-ST-23  Davenport 2.1 SW  0.00 0.0 0.0 IAScott  View
12/18/2014  5:30 AM  IA-TY-2  New Market 4.7 N  T T NA IATaylor  View
12/18/2014  5:37 AM  IA-BN-12  Boone 4.5 WSW  0.00 NA NA IABoone  View
12/18/2014  6:00 AM  IA-BC-5  Walker 3.5 NE  0.00 0.0 NA IABuchanan  View
12/18/2014  6:00 AM  IA-CN-5  Camanche 1.2 W  0.00 0.0 NA IAClinton  View
12/18/2014  6:00 AM  IA-LN-3  Ely 0.5 SE  0.00 0.0 NA IALinn  View
12/18/2014  6:00 AM  IA-SX-5  Alton 0.7 ESE  0.04 NA 0.5 IASioux  View
12/18/2014  6:00 AM  IA-WB-3  Fort Dodge 1.6 ENE  0.00 0.0 NA IAWebster  View
12/18/2014  6:30 AM  IA-ST-1  Le Claire 1.8 NNE  0.00 0.0 0.0 IAScott  View
12/18/2014  6:30 AM  IA-ST-8  Bettendorf 2.2 SE  0.00 0.0 0.0 IAScott  View
12/18/2014  7:00 AM  IA-BH-6  Waterloo 1.9 SSE  0.00 0.0 NA IABlack Hawk  View
12/18/2014  7:00 AM  IA-BH-7  Cedar Falls 1.4 SSE  0.00 0.0 NA IABlack Hawk  View
12/18/2014  7:00 AM  IA-CS-2  Anita 2.8 ESE  T NA NA IACass  View
12/18/2014  7:00 AM  IA-CG-7  Swaledale 0.0 WNW  0.00 0.0 NA IACerro Gordo  View
12/18/2014  7:00 AM  IA-CK-3  Cleghorn 2.5 NNE  0.00 0.0 0.0 IACherokee  View
12/18/2014  7:00 AM  IA-CL-2  Osceola 2.5 WSW  0.00 0.0 NA IAClarke  View
12/18/2014  7:00 AM  IA-CL-3  Murray 0.5 N  T T T IAClarke  View
12/18/2014  7:00 AM  IA-CN-2  Calamus 2.0 NE  0.00 0.0 NA IAClinton  View
12/18/2014  7:00 AM  IA-CN-8  Delmar 2.3 NW  0.00 0.0 NA IAClinton  View
12/18/2014  7:00 AM  IA-DW-6  Hopkinton 5.4 WSW  0.00 0.0 NA IADelaware  View
12/18/2014  7:00 AM  IA-DM-7  Burlington 6.5 SSW  0.00 0.0 NA IADes Moines  View
12/18/2014  7:00 AM  IA-FY-3  Waucoma 3.2 S  T T NA IAFayette  View
12/18/2014  7:00 AM  IA-GT-3  Bagley 0.1 W  0.00 0.0 NA IAGuthrie  View
12/18/2014  7:00 AM  IA-HR-2  Woodbine 7.9 NNW  0.00 0.0 NA IAHarrison  View
12/18/2014  7:00 AM  IA-HR-3  Logan 1.5 NNW  0.00 0.0 0.0 IAHarrison  View
12/18/2014  7:00 AM  IA-HR-4  Persia 2.0 S  T T NA IAHarrison  View
12/18/2014  7:00 AM  IA-HY-1  New London 1.5 SW  0.00 0.0 0.0 IAHenry  View
12/18/2014  7:00 AM  IA-IA-6  Amana 4.7 W  0.00 0.0 NA IAIowa  View
12/18/2014  7:00 AM  IA-JH-1  Solon 0.3 ESE  0.00 0.0 NA IAJohnson  View
12/18/2014  7:00 AM  IA-JH-9  Kalona 7.3 NNW  0.00 0.0 NA IAJohnson  View
12/18/2014  7:00 AM  IA-JH-10  Coralville 1.8 NW  0.00 0.0 0.0 IAJohnson  View
12/18/2014  7:00 AM  IA-LN-4  Cedar Rapids 3.4 NW  0.00 0.0 NA IALinn  View
12/18/2014  7:00 AM  IA-LN-7  Central City 6.7 W  0.00 0.0 NA IALinn  View
12/18/2014  7:00 AM  IA-LN-9  Marion 1.2 NE  0.00 0.0 NA IALinn  View
12/18/2014  7:00 AM  IA-LY-2  Lester 0.2 E  0.00 0.0 NA IALyon  View
12/18/2014  7:00 AM  IA-MH-6  Rose Hill 4.0 NNW  0.00 0.0 NA IAMahaska  View
12/18/2014  7:00 AM  IA-MA-5  Pella 0.9 N  0.00 0.0 NA IAMarion  View
12/18/2014  7:00 AM  IA-MS-5  Marshalltown 1.7 NW  0.00 0.0 NA IAMarshall  View
12/18/2014  7:00 AM  IA-PK-3  Des Moines 4.5 WNW  0.00 0.0 NA IAPolk  View
12/18/2014  7:00 AM  IA-PK-14  Ankeny 2.3 WNW  0.00 0.0 NA IAPolk  View
12/18/2014  7:00 AM  IA-PK-21  Johnston 3.7 NNW  0.00 0.0 0.0 IAPolk  View
12/18/2014  7:00 AM  IA-PK-73  Des Moines 4.1 N  0.00 NA NA IAPolk  View
12/18/2014  7:00 AM  IA-PK-74  Saylorville 2.6 SSW  0.00 NA NA IAPolk  View
12/18/2014  7:00 AM  IA-PT-2  Council Bluffs 3.4 NNE  T T NA IAPottawattamie  View
12/18/2014  7:00 AM  IA-PT-7  Council Bluffs 3.6 E  T NA NA IAPottawattamie  View
12/18/2014  7:00 AM  IA-SC-2  Odebolt 4.8 E  T NA NA IASac  View
12/18/2014  7:00 AM  IA-SR-2  Ames 1.5 NNE  0.00 0.0 NA IAStory  View
12/18/2014  7:00 AM  IA-SR-17  Ames 0.9 ENE  0.00 0.0 0.0 IAStory  View
12/18/2014  7:00 AM  IA-SR-19  Gilbert 0.2 W  0.00 0.0 NA IAStory  View
12/18/2014  7:00 AM  IA-UN-1  Creston 0.7 NE  T NA NA IAUnion  View
12/18/2014  7:00 AM  IA-WR-6  Norwalk 4.0 S  0.00 0.0 NA IAWarren  View
12/18/2014  7:00 AM  IA-WS-2  Ainsworth 7.4 N  0.00 0.0 NA IAWashington  View
12/18/2014  7:00 AM  IA-WB-5  Badger 3.1 NW  0.00 0.0 NA IAWebster  View
12/18/2014  7:00 AM  IA-WH-1  Decorah 7.9 ENE  0.00 0.0 NA IAWinneshiek  View
12/18/2014  7:30 AM  IA-BC-2  Quasqueton 0.4 WSW  0.00 0.0 0.0 IABuchanan  View
12/18/2014  7:45 AM  IA-CG-4  Mason City 1.3 W  0.00 0.0 NA IACerro Gordo  View
12/18/2014  8:00 AM  IA-CT-7  Marquette 0.2 NNE  T NA NA IAClayton  View
12/18/2014  8:00 AM  IA-FR-1  Latimer 1.9 NE  0.00 0.0 NA IAFranklin  View
12/18/2014  8:00 AM  IA-JN-10  Center Junction 2.6 W  0.00 0.0 NA IAJones  View
12/18/2014  8:00 AM  IA-LN-5  Cedar Rapids 2.1 ENE  0.00 0.0 NA IALinn  View
12/18/2014  8:00 AM  IA-PT-13  Council Bluffs 2.1 SSE  0.01 NA NA IAPottawattamie  View
12/18/2014  8:00 AM  IA-SX-6  Orange City 2.5 S  0.00 0.0 NA IASioux  View
12/18/2014  8:00 AM  IA-SR-12  Ames 2.1 N  0.00 0.0 NA IAStory  View
12/18/2014  8:00 AM  IA-SR-13  Nevada 0.8 NW  0.00 0.0 NA IAStory  View
12/18/2014  8:00 AM  IA-SR-29  Ames 2.5 W  0.00 0.0 NA IAStory  View
12/18/2014  8:00 AM  IA-TY-4  Bedford 0.5 NW  0.07 0.1 0.1 IATaylor  View
12/18/2014  8:00 AM  IA-WR-5  Hartford 1.0 ENE  0.00 0.0 0.0 IAWarren  View
12/18/2014  9:50 AM  IA-PK-75  Clive 0.1 WSW  0.00 0.0 NA IAPolk  View
12/18/2014  3:38 PM  IA-AP-4  Centerville 0.7 NW  0.09 0.5 0.5 IAAppanoose  View